When you browse on this site, cookies collect data to enhance your experience and personalize the content and advertising you see.
Visit our Privacy Policy to learn more. By continuing to use the site, you agree to this use of cookies and data.
  • In Portugal
  • List of Countries
  • For 7 days
  • Water Temperature
  • Weather Map
  • Weather Widgets
  • user-avatar
    Login

    Hourly Weather Urved

    Today, 23 September, Monday

    Time Temperature Precipitation Wind Pressure Humidity
    00:00 +6°C° 0 mm 4 mps 747 mmHg 80%
    01:00 +6°C° 0 mm 4 mps 747 mmHg 79%
    02:00 +5°C° 0 mm 4 mps 748 mmHg 77%
    03:00 +4°C° 0 mm 3 mps 748 mmHg 83%
    04:00 +3°C° 0 mm 3 mps 748 mmHg 88%
    05:00 +3°C° 0 mm 2 mps 748 mmHg 94%
    06:00 +3°C° 0 mm 3 mps 749 mmHg 89%
    07:00 +3°C° 0 mm 3 mps 749 mmHg 84%
    08:00 +4°C° 0 mm 3 mps 750 mmHg 80%
    09:00 +5°C° 0 mm 3 mps 750 mmHg 71%
    10:00 +8°C° 0 mm 3 mps 750 mmHg 62%
    11:00 +10°C° 0 mm 3 mps 750 mmHg 54%
    12:00 +10°C° 0 mm 3 mps 750 mmHg 50%
    13:00 +12°C° 0 mm 2 mps 750 mmHg 46%
    14:00 +12°C° 0 mm 2 mps 750 mmHg 42%
    15:00 +12°C° 0 mm 2 mps 750 mmHg 46%
    16:00 +10°C° 0 mm 2 mps 750 mmHg 49%
    17:00 +10°C° 0 mm 2 mps 749 mmHg 53%
    18:00 +8°C° 0 mm 2 mps 750 mmHg 56%
    19:00 +7°C° 0 mm 2 mps 750 mmHg 60%
    20:00 +5°C° 0 mm 2 mps 750 mmHg 63%
    21:00 +4°C° 0 mm 2 mps 750 mmHg 65%
    22:00 +4°C° 0 mm 2 mps 750 mmHg 68%
    23:00 +3°C° 0 mm 2 mps 750 mmHg 70%

    Tomorrow, 24 September, Tuesday

    Time Temperature Precipitation Wind Pressure Humidity
    00:00 +3°C° 0 mm 2 mps 750 mmHg 71%
    01:00 +3°C° 0 mm 2 mps 750 mmHg 73%
    02:00 +3°C° 0 mm 1 mps 750 mmHg 74%
    03:00 +3°C° 0 mm 1 mps 750 mmHg 76%
    04:00 +3°C° 0 mm 1 mps 750 mmHg 77%
    05:00 +2°C° 0 mm 1 mps 749 mmHg 79%
    06:00 +3°C° 0 mm 1 mps 749 mmHg 75%
    07:00 +4°C° 0 mm 1 mps 749 mmHg 71%
    08:00 +6°C° 0 mm 1 mps 749 mmHg 67%
    09:00 +6°C° 0 mm 2 mps 749 mmHg 61%
    10:00 +8°C° 0 mm 2 mps 749 mmHg 54%
    11:00 +10°C° 0 mm 2 mps 749 mmHg 48%
    12:00 +10°C° 0 mm 2 mps 749 mmHg 45%
    13:00 +12°C° 0 mm 2 mps 749 mmHg 42%
    14:00 +13°C° 0 mm 2 mps 748 mmHg 40%
    15:00 +12°C° 0 mm 2 mps 748 mmHg 44%
    16:00 +12°C° 0 mm 2 mps 747 mmHg 49%
    17:00 +10°C° 0 mm 2 mps 747 mmHg 53%
    18:00 +8°C° 0 mm 2 mps 747 mmHg 56%
    19:00 +7°C° 0 mm 2 mps 747 mmHg 58%
    20:00 +5°C° 0 mm 2 mps 747 mmHg 61%
    21:00 +5°C° 0 mm 2 mps 747 mmHg 61%
    22:00 +4°C° 0 mm 2 mps 747 mmHg 62%
    23:00 +3°C° 0 mm 3 mps 747 mmHg 63%

    Day after tomorrow, 25 September, Wednesday

    Time Temperature Precipitation Wind Pressure Humidity
    00:00 +2°C° 0 mm 3 mps 747 mmHg 64%
    01:00 +2°C° 0 mm 3 mps 747 mmHg 65%
    02:00 +2°C° 0 mm 3 mps 747 mmHg 66%
    03:00 +1°C° 0 mm 3 mps 747 mmHg 67%
    04:00 +1°C° 0 mm 3 mps 747 mmHg 68%
    05:00 +1°C° 0 mm 3 mps 746 mmHg 69%
    06:00 +2°C° 0 mm 3 mps 746 mmHg 66%
    07:00 +3°C° 0 mm 3 mps 746 mmHg 63%
    08:00 +4°C° 0 mm 3 mps 746 mmHg 60%
    09:00 +7°C° 0 mm 3 mps 746 mmHg 58%
    10:00 +8°C° 0 mm 3 mps 746 mmHg 55%
    11:00 +10°C° 0 mm 3 mps 746 mmHg 53%
    12:00 +11°C° 0 mm 3 mps 745 mmHg 52%
    13:00 +12°C° 0 mm 4 mps 745 mmHg 52%
    14:00 +13°C° 0 mm 4 mps 744 mmHg 52%
    15:00 +13°C° 0 mm 3 mps 744 mmHg 56%
    16:00 +12°C° 0 mm 3 mps 744 mmHg 59%
    17:00 +12°C° 0 mm 3 mps 743 mmHg 63%
    18:00 +11°C° 0 mm 3 mps 743 mmHg 66%
    19:00 +10°C° 0 mm 3 mps 743 mmHg 68%
    20:00 +9°C° 0 mm 3 mps 743 mmHg 71%
    21:00 +9°C° 0 mm 3 mps 743 mmHg 72%
    22:00 +9°C° 0 mm 3 mps 743 mmHg 74%
    23:00 +9°C° 0 mm 3 mps 743 mmHg 76%

    26 September, Thursday

    Time Temperature Precipitation Wind Pressure Humidity
    00:00 +9°C° 0 mm 3 mps 743 mmHg 77%
    01:00 +8°C° 0 mm 3 mps 743 mmHg 77%
    02:00 +8°C° 0 mm 3 mps 743 mmHg 78%
    03:00 +8°C° 0 mm 3 mps 742 mmHg 81%
    04:00 +8°C° 0 mm 3 mps 742 mmHg 84%
    05:00 +8°C° 0 mm 3 mps 742 mmHg 87%
    06:00 +8°C° 0.1 mm 2 mps 742 mmHg 87%
    07:00 +9°C° 0.1 mm 2 mps 742 mmHg 87%
    08:00 +9°C° 0.1 mm 2 mps 742 mmHg 87%
    09:00 +10°C° 0.7 mm 2 mps 742 mmHg 88%
    10:00 +10°C° 0.7 mm 3 mps 742 mmHg 88%
    11:00 +11°C° 0.7 mm 3 mps 742 mmHg 89%
    12:00 +12°C° 0.2 mm 3 mps 742 mmHg 87%
    13:00 +13°C° 0.2 mm 3 mps 742 mmHg 86%
    14:00 +15°C° 0.2 mm 2 mps 742 mmHg 84%
    15:00 +15°C° 0.5 mm 2 mps 742 mmHg 86%
    16:00 +15°C° 0.5 mm 2 mps 742 mmHg 88%
    17:00 +15°C° 0.5 mm 2 mps 742 mmHg 90%
    18:00 +14°C° 0.3 mm 2 mps 742 mmHg 92%
    19:00 +13°C° 0.3 mm 2 mps 742 mmHg 94%
    20:00 +12°C° 0.3 mm 2 mps 742 mmHg 96%
    21:00 +12°C° 0 mm 2 mps 743 mmHg 97%
    22:00 +12°C° 0 mm 2 mps 743 mmHg 97%
    23:00 +11°C° 0 mm 1 mps 743 mmHg 98%

    27 September, Friday

    Time Temperature Precipitation Wind Pressure Humidity
    00:00 +11°C° 0 mm 1 mps 743 mmHg 98%
    01:00 +11°C° 0 mm 1 mps 743 mmHg 98%
    02:00 +11°C° 0 mm 1 mps 743 mmHg 98%
    03:00 +11°C° 0 mm 1 mps 744 mmHg 98%
    04:00 +11°C° 0 mm 1 mps 744 mmHg 98%
    05:00 +11°C° 0 mm 1 mps 744 mmHg 97%
    06:00 +11°C° 0 mm 1 mps 744 mmHg 97%
    07:00 +11°C° 0 mm 1 mps 744 mmHg 97%
    08:00 +11°C° 0 mm 1 mps 744 mmHg 96%
    09:00 +12°C° 0 mm 1 mps 745 mmHg 94%
    10:00 +12°C° 0 mm 1 mps 745 mmHg 93%
    11:00 +13°C° 0 mm 1 mps 746 mmHg 91%
    12:00 +13°C° 0 mm 1 mps 746 mmHg 89%
    13:00 +14°C° 0 mm 1 mps 746 mmHg 87%
    14:00 +14°C° 0 mm 1 mps 746 mmHg 85%
    15:00 +14°C° 0.1 mm 1 mps 746 mmHg 86%
    16:00 +14°C° 0.1 mm 1 mps 746 mmHg 87%
    17:00 +14°C° 0.1 mm 1 mps 746 mmHg 88%
    18:00 +13°C° 0 mm 1 mps 746 mmHg 90%
    19:00 +12°C° 0 mm 1 mps 747 mmHg 92%
    20:00 +12°C° 0 mm 1 mps 747 mmHg 94%
    21:00 +11°C° 0 mm 1 mps 747 mmHg 95%
    22:00 +11°C° 0 mm 1 mps 747 mmHg 95%
    23:00 +10°C° 0 mm 1 mps 747 mmHg 96%

    28 September, Saturday

    Time Temperature Precipitation Wind Pressure Humidity
    00:00 +10°C° 0 mm 1 mps 747 mmHg 96%
    01:00 +10°C° 0 mm 1 mps 747 mmHg 96%
    02:00 +9°C° 0 mm 1 mps 747 mmHg 97%
    03:00 +8°C° 0 mm 2 mps 747 mmHg 97%
    04:00 +8°C° 0 mm 2 mps 747 mmHg 96%
    05:00 +8°C° 0 mm 2 mps 747 mmHg 96%
    06:00 +9°C° 0 mm 3 mps 746 mmHg 94%
    07:00 +9°C° 0 mm 3 mps 746 mmHg 92%
    08:00 +10°C° 0 mm 4 mps 746 mmHg 89%
    09:00 +11°C° 0 mm 4 mps 746 mmHg 87%
    10:00 +13°C° 0 mm 4 mps 746 mmHg 84%
    11:00 +14°C° 0 mm 5 mps 746 mmHg 82%
    12:00 +15°C° 0.1 mm 5 mps 745 mmHg 78%
    13:00 +17°C° 0.1 mm 5 mps 745 mmHg 75%
    14:00 +19°C° 0.1 mm 5 mps 744 mmHg 71%
    15:00 +18°C° 0 mm 4 mps 744 mmHg 74%
    16:00 +18°C° 0 mm 4 mps 744 mmHg 76%
    17:00 +17°C° 0 mm 3 mps 743 mmHg 79%
    18:00 +17°C° 0.8 mm 3 mps 743 mmHg 83%
    19:00 +16°C° 0.8 mm 3 mps 743 mmHg 88%
    20:00 +14°C° 0.8 mm 3 mps 743 mmHg 93%
    21:00 +14°C° 1.5 mm 3 mps 743 mmHg 95%
    22:00 +14°C° 1.5 mm 3 mps 742 mmHg 96%
    23:00 +14°C° 1.5 mm 3 mps 742 mmHg 98%
    Show more